Hickory, NC

2:22 PM EDT on October 22, 2017 (GMT -0400)
Hickory Regional

Weather History for KHKY - September, 2011

Change the Weather History Date:

Sunday, September 25, 2011

  Actual Average Record
Temperature  
Mean Temperature 74 °F -  
Max Temperature 81 °F 75 °F 92 °F (1984)
Min Temperature 66 °F 56 °F 41 °F (1950)
Cooling Degree Days 8    
Growing Degree Days 24 (Base 50)    
Moisture  
Dew Point 67 °F    
Average Humidity 91    
Maximum Humidity 100    
Minimum Humidity 65    
Precipitation  
Precipitation 0.01 in - - ()
Sea Level Pressure  
Sea Level Pressure 30.01 in    
Wind  
Wind Speed 1 mph (ESE)    
Max Wind Speed 5 mph    
Max Gust Speed -    
Visibility 8 miles    
Events Fog , Rain    
Averages and records for this station are not official NWS values.
T = Trace of Precipitation, MM = Missing Value Source: NWS Daily Summary

Daily Weather History Graph

Daily Weather History Graph

Search for Another Location

Airport or City:

Trip Planner

Search our weather history database for the weather conditions in past years. The results will help you decide how hot, cold, wet, or windy it might be!

Date:

Astronomy

Sep. 25, 2011 Rise Set
Actual Time 7:15 AM EDT 7:18 PM EDT
Civil Twilight 6:50 AM EDT 7:43 PM EDT
Nautical Twilight 6:20 AM EDT 8:13 PM EDT
Astronomical Twilight 5:50 AM EDT 8:43 PM EDT
Moon 5:04 AM EDT (9/25) 5:56 PM EDT (9/25)
Length of Visible Light 12h 53m
Length of Day
12h 02m
Waning Crescent, 5% of the Moon is Illuminated
Sep 25
Waning Crescent
Sep 27
New
Oct 3
First Quarter
Oct 11
Full
Oct 19
Last Quarter

Hourly Weather History & Observations

Time (EDT) Temp. Heat Index Dew Point Humidity Pressure Visibility Wind Dir Wind Speed Gust Speed Precip Events Conditions
12:13 AM 69.8 °F - 64.4 °F 83% 30.04 in 10.0 mi Calm Calm - N/A   Mostly Cloudy
12:40 AM 68.0 °F - 64.4 °F 88% 30.04 in 10.0 mi East 3.5 mph - N/A   Mostly Cloudy
12:53 AM 68.0 °F - 64.0 °F 87% 29.98 in 10.0 mi East 3.5 mph - N/A   Overcast
1:12 AM 68.0 °F - 64.4 °F 88% 30.03 in 10.0 mi Calm Calm - N/A   Overcast
1:53 AM 68.0 °F - 64.0 °F 87% 29.97 in 10.0 mi Calm Calm - N/A   Overcast
2:04 AM 68.0 °F - 64.4 °F 88% 30.03 in 10.0 mi Calm Calm - N/A   Overcast
2:53 AM 66.9 °F - 64.9 °F 93% 29.96 in 10.0 mi ESE 4.6 mph - N/A   Overcast
3:36 AM 66.2 °F - 64.4 °F 94% 30.02 in 10.0 mi Calm Calm - N/A   Overcast
3:53 AM 66.9 °F - 64.9 °F 93% 29.96 in 10.0 mi Calm Calm - N/A   Overcast
4:53 AM 66.9 °F - 66.0 °F 97% 29.95 in 7.0 mi Calm Calm - N/A   Overcast
5:51 AM 66.2 °F - 66.2 °F 100% 30.02 in 1.5 mi Calm Calm - N/A   Overcast
5:53 AM 66.9 °F - 66.0 °F 97% 29.96 in 1.5 mi Calm Calm - N/A   Overcast
6:19 AM 66.2 °F - 66.2 °F 100% 30.03 in 0.5 mi Calm Calm - N/A Fog Fog
6:37 AM 66.2 °F - 66.2 °F 100% 30.03 in 0.5 mi Calm Calm - N/A Fog Fog
6:53 AM 66.9 °F - 66.9 °F 100% 29.97 in 0.5 mi Calm Calm - N/A Fog Fog
7:53 AM 68.0 °F - 66.9 °F 96% 29.99 in 0.8 mi Calm Calm - N/A   Overcast
8:11 AM 68.0 °F - 66.2 °F 94% 30.05 in 1.2 mi East 3.5 mph - 0.00 in Rain Light Rain
8:50 AM 68.0 °F - 68.0 °F 100% 30.06 in 0.8 mi Calm Calm - 0.01 in Rain Light Rain
8:53 AM 68.0 °F - 68.0 °F 100% 30.00 in 0.8 mi Calm Calm - 0.01 in Rain Light Rain
9:24 AM 69.8 °F - 68.0 °F 94% 30.06 in 1.2 mi Calm Calm - N/A   Overcast
9:53 AM 69.8 °F - 69.8 °F 100% 30.06 in 1.5 mi Calm Calm - N/A   Overcast
10:07 AM 69.8 °F - 69.8 °F 100% 30.06 in 3.0 mi Variable 3.5 mph - N/A   Overcast
10:38 AM 69.8 °F - 69.8 °F 100% 30.07 in 10.0 mi SW 3.5 mph - N/A   Overcast
10:53 AM 70.0 °F - 69.1 °F 97% 30.01 in 9.0 mi South 3.5 mph - N/A   Overcast
11:09 AM 69.8 °F - 69.8 °F 100% 30.07 in 10.0 mi South 3.5 mph - 0.00 in Rain Light Rain
11:29 AM 71.6 °F - 69.8 °F 94% 30.07 in 10.0 mi Calm Calm - 0.00 in Rain Light Rain
11:37 AM 73.4 °F - 69.8 °F 88% 30.07 in 10.0 mi Calm Calm - 0.00 in   Overcast
11:53 AM 73.9 °F - 69.1 °F 85% 30.01 in 10.0 mi Calm Calm - 0.00 in   Overcast
12:10 PM 75.2 °F - 69.8 °F 83% 30.06 in 10.0 mi Calm Calm - N/A   Overcast
12:53 PM 75.2 °F - 68.0 °F 78% 30.06 in 10.0 mi Variable 4.6 mph - N/A   Mostly Cloudy
1:53 PM 81.0 °F 83.8 °F 68.0 °F 65% 29.97 in 10.0 mi Calm Calm - N/A   Clear
3:53 PM 78.1 °F - 68.0 °F 71% 29.92 in 10.0 mi Variable 3.5 mph - N/A   Clear
4:53 PM 75.2 °F - 69.8 °F 83% 29.98 in 10.0 mi Variable 4.6 mph - N/A   Partly Cloudy
5:53 PM 72.0 °F - 66.9 °F 84% 29.95 in 10.0 mi Variable 3.5 mph - N/A   Partly Cloudy
6:48 PM 71.6 °F - 68.0 °F 88% 29.99 in 10.0 mi Calm Calm - N/A   Partly Cloudy
6:53 PM 71.6 °F - 68.0 °F 88% 29.98 in 10.0 mi Calm Calm - N/A   Partly Cloudy
7:53 PM 71.1 °F - 68.0 °F 90% 29.93 in 10.0 mi Calm Calm - N/A   Clear
8:23 PM 71.6 °F - 68.0 °F 88% 30.00 in 10.0 mi Calm Calm - N/A   Scattered Clouds
8:39 PM 71.6 °F - 68.0 °F 88% 30.01 in 10.0 mi East 3.5 mph - N/A   Mostly Cloudy
8:53 PM 71.1 °F - 69.1 °F 93% 29.96 in 10.0 mi East 3.5 mph - N/A   Overcast
9:53 PM 71.1 °F - 68.0 °F 90% 29.96 in 10.0 mi Variable 4.6 mph - N/A   Overcast
10:19 PM 71.6 °F - 68.0 °F 88% 30.01 in 10.0 mi Calm Calm - N/A   Overcast
10:48 PM 69.8 °F - 66.2 °F 88% 30.02 in 10.0 mi Calm Calm - N/A   Scattered Clouds
10:53 PM 69.8 °F - 66.2 °F 88% 30.02 in 10.0 mi Calm Calm - N/A   Mostly Cloudy
11:11 PM 69.8 °F - 66.2 °F 88% 30.03 in 10.0 mi Calm Calm - N/A   Scattered Clouds
11:53 PM 68.0 °F - 64.9 °F 90% 29.97 in 10.0 mi Calm Calm - N/A   Scattered Clouds